This is the latest recevied weather packets stored in our database for station/object WX9WTF. If no packets are shown the sender has not sent any weather packets the latest 10 day(s).
| Time | Temp. | Humidity | Pressure | Rain* | Wind** | Luminosity | Snow |
|---|---|---|---|---|---|---|---|
| 1777695830 | 10° C | 58% | 1019.6 hPa | 0 mm | - | 0 W/m² | - |
| 1777695527 | 10° C | 58% | 1019.5 hPa | 0 mm | - | 0 W/m² | - |
| 1777695224 | 10° C | 59% | 1019.7 hPa | 0 mm | - | 0 W/m² | - |
| 1777694922 | 9.44° C | 61% | 1019.5 hPa | 0 mm | - | 0 W/m² | - |
| 1777694618 | 10° C | 61% | 1019.5 hPa | 0 mm | - | 0 W/m² | - |
| 1777694314 | 10° C | 59% | 1019.5 hPa | 0 mm | - | 0 W/m² | - |
| 1777694011 | 10° C | 59% | 1019.4 hPa | 0 mm | - | 0 W/m² | - |
| 1777693708 | 10° C | 61% | 1019.6 hPa | 0 mm | - | 0 W/m² | - |
| 1777693407 | 10° C | 59% | 1019.5 hPa | 0 mm | - | 0 W/m² | - |
| 1777693105 | 10° C | 59% | 1019.5 hPa | 0 mm | - | 0 W/m² | - |
| 1777692802 | 10° C | 61% | 1019.5 hPa | 0 mm | - | 0 W/m² | - |
| 1777692499 | 10.56° C | 58% | 1019.4 hPa | 0 mm | - | 0 W/m² | - |
| 1777692195 | 10.56° C | 57% | 1019.2 hPa | 0 mm | - | 0 W/m² | - |
| 1777691893 | 10.56° C | 59% | 1019.2 hPa | 0 mm | - | 0 W/m² | - |
| 1777691591 | 10.56° C | 57% | 1019.2 hPa | 0 mm | - | 0 W/m² | - |
| 1777691289 | 10.56° C | 57% | 1019.1 hPa | 0 mm | - | 0 W/m² | - |
| 1777690987 | 10.56° C | 57% | 1019.1 hPa | 0 mm | - | 0 W/m² | - |
| 1777690684 | 11.67° C | 54% | 1019 hPa | 0 mm | - | 0 W/m² | - |
| 1777690382 | 11.67° C | 51% | 1019.1 hPa | 0 mm | - | 0 W/m² | - |
| 1777690079 | 11.67° C | 50% | 1019 hPa | 0 mm | - | 0 W/m² | - |
| 1777689776 | 11.67° C | 50% | 1018.9 hPa | 0 mm | - | 0 W/m² | - |
| 1777689475 | 12.22° C | 50% | 1018.8 hPa | 0 mm | - | 0 W/m² | - |
| 1777689172 | 12.22° C | 49% | 1018.8 hPa | 0 mm | - | 0 W/m² | - |
| 1777688870 | 12.22° C | 49% | 1018.6 hPa | 0 mm | - | 0 W/m² | - |
| 1777688565 | 12.78° C | 48% | 1018.5 hPa | 0 mm | - | 0 W/m² | - |
* Rain latest hour (hover to see other rain measurements)
** Current wind speed in m/s (hover to see current wind gust speed)